Weather Roundup
Issued by NWS

Home | Current Version | Previous Version | Graphics & Text | Print | Product List | Glossary Off
Versions: 1 2 3 4 5 6 7 8 9 10 11 12 13 14 15 16 17 18 19 20 21 22 23 24 25 26 27 28 29 30 31 32 33 34 35 36 37 38 39 40 41 42 43 44 45 46 47 48 49 50

000
NZUS93 KARX 210359
HRRWXR

CURRENT HOURLY OBSERVATIONS ACROSS
MUCH OF THE UPPER MISSISSIPPI VALLEY
NATIONAL WEATHER SERVICE LA CROSSE WI
1100 PM CDT SAT SEP 20 2014


...SOUTHEAST MINNESOTA...


CITY           SKY/WX    TMP DP  RH WIND       PRES   REMARKS
ROCHESTER      CLEAR     56  52  86 NW10      29.89R
ROCHESTER/MAYO FAIR      57  52  84 W12G18    29.87S
WINONA         PTCLDY    59  52  77 NW13G23   29.83S
AUSTIN         CLEAR     55  54  94 NW8       29.90S
ALBERT LEA     CLEAR     55  55 100 W6        29.92R
DODGE CENTER   CLEAR     57  54  88 W10       29.89S
PRESTON        CLEAR     55  55  99 NW12      29.89R
OWATONNA       CLEAR     54  52  94 W3        29.90S
FARIBAULT      PTCLDY    57  54  88 W7        29.89S
$$

...ELSEWHERE IN MINNESOTA...


CITY           SKY/WX    TMP DP  RH WIND       PRES   REMARKS
MINNEAPOLIS    PTCLDY    57  52  83 W10       29.85S
INTNL FALLS    LGT RAIN  52  50  93 N15       29.83R
DULUTH         LGT RAIN  54  51  90 NW9       29.71S
RED WING       CLEAR     57  54  88 W7        29.83S
REDWOOD FALLS  CLEAR     58  50  75 W17       29.92S
MANKATO        PTCLDY    55  48  76 SW8       29.91S
WORTHINGTON    CLEAR     55  46  71 W8        30.01R
FAIRMONT       CLEAR     57  50  77 W10       29.95R
$$

...SOUTHWEST WISCONSIN...


CITY           SKY/WX    TMP DP  RH WIND       PRES   REMARKS
LA CROSSE      MOCLDY    62  55  77 NW18G31   29.81R
PRAIRIE DU CHI MOCLDY    61  59  96 W5        29.81R
BOSCOBEL       CLOUDY    63  60  90 SW7       29.80R
LONE ROCK      NOT AVBL
PLATTEVILLE    CLOUDY    62  61  95 CALM      29.78F
FORT MC COY    MOCLDY    61  55  82 W10G20    29.79R
VIROQUA        MOCLDY    59  59 100 W12       29.81R
WIS DELLS      CLOUDY    60  57  91 SW5       29.73F
$$

...ELSEWHERE IN WISCONSIN...


CITY           SKY/WX    TMP DP  RH WIND       PRES   REMARKS
MILWAUKEE      MOCLDY    67  63  87 SW7       29.70F
MADISON        CLOUDY    63  59  87 CALM      29.72S
GREEN BAY      CLOUDY    63  58  83 W3        29.66F
EAU CLAIRE     CLEAR     56  52  86 W8        29.78S
BLACK RVR FLS  MOCLDY    59  59  99 W10       29.79R
MEDFORD        MOCLDY    53  52  97 W5        29.74S
WAUSAU         CLOUDY    56  54  93 NW7       29.71R
WIS RAPIDS     CLOUDY    56  55  97 W7        29.76R
MARSHFIELD     PTCLDY    56  53  90 W9        29.75R
RICE LAKE      RAIN      56  52  86 W9        29.77F
$$

...NORTHEAST IOWA...


CITY           SKY/WX    TMP DP  RH WIND       PRES   REMARKS
WATERLOO       CLEAR     59  56  89 NW15G22   29.91R
DUBUQUE        CLOUDY    62  60  93 NW6       29.83S
DECORAH        PTCLDY    59  55  88 NW10G21   29.86R
MASON CITY     CLEAR     57  55  93 NW10      29.95R
CHARLES CITY   CLEAR     57  54  88 NW15G22   29.92R
OELWEIN        PTCLDY    59  57  94 NW12G18   29.89R
$$

...ELSEWHERE IN IOWA...


CITY           SKY/WX    TMP DP  RH WIND       PRES   REMARKS
DES MOINES     PTCLDY    69  52  54 N16G32    29.97R
IOWA CITY        N/A     69  59  70 NW13      29.87R
FORT DODGE     CLEAR     59  52  77 CALM      30.00R
MARSHALLTOWN   PTCLDY    61  56  83 NW16      29.94R
CEDAR RAPIDS   PTCLDY    64  59  83 NW13      29.88R
$$

...NORTHERN ILLINOIS...


CITY           SKY/WX    TMP DP  RH WIND       PRES   REMARKS
CHICAGO-OHARE  PTCLDY    70  66  87 SW7       29.74F
DUPAGE         PTCLDY    69  66  90 SW12      29.76F
CHICAGO-MIDWAY MOCLDY    71  67  87 SW7       29.75F
MOLINE         CLEAR     71  67  87 SW9       29.79F
ROCKFORD       MOCLDY    67  64  90 S8        29.74F
STERLING       CLEAR     70  64  83 W12       29.77S
PEORIA         CLEAR     73  67  81 W8        29.85R
$$

NOTE: "FAIR" INDICATES FEW OR NO CLOUDS BELOW 12,000 FEET WITH NO
SIGNIFICANT WEATHER AND/OR OBSTRUCTIONS TO VISIBILITY. WIND
SPEEDS ARE IN MILES-PER-HOUR.



USA.gov is the U.S. government's official web portal to all federal, state and local government web resources and services.